FENGYUN 1C DEB

Satellite information

Favourite Embed

Satellite Type and Status

DEBRISIN ORBIT

Key statistics

Satellite FENGYUN 1C DEB at a glance.

Uptime

9617

Days in orbit

Revolutions

≈ 14.2

Per day

Orbit

SSO

Sun Synchronous Orbit

Inclination

98.9

Latest

Satellite identification and parameters

Extended collection of information and parameters for FENGYUN 1C DEB.

Object identification

Identified? True

Debris? True

Object name: FENGYUN 1C DEB

International designator: 1999-025EZK

Object number (NORAD): 46468

Object ID (CCSDS): 46468

Country: PEOPLES REPUBLIC OF CHINA (PRC)

Current information (Y/N): Y

RCS size: SMALL

Orbital parameters

Period: 101.153 minutes

Inclination: 98.8862 deg

SMA: 7191.392 km

Apoapsis: 847.464 km

Periapsis: 779.05 km

RAAN: 330.8838 deg

Eccentricy: 0.00475665

Argument of periapsis: 166.7035 deg

Mean anomaly: 223.0101 deg

Mean motion: 14.2358481 rev/day

Mean motion (dot): 0.00007262 rev/day2

B* drag term: 0.0031681643 1/REarth

Two-line elements (TLE)

Creation date: Sept. 1, 2025, 10:16 a.m.

Reference frame: TEME

Reference center: EARTH

Epoch: Sept. 1, 2025, 4:59 a.m. UTC

TLE line 0: 0 FENGYUN 1C DEB

TLE line 1: 1 46468U 99025EZK 25244.20785624 .00007262 00000-0 31682-2 0 9993

TLE line 2: 2 46468 98.8862 330.8838 0047566 166.7035 223.0101 14.23584810723579

Live tracking on map

Real-time ground track for satellite FENGYUN 1C DEB.

In-orbit conjunctions

A list of the most updated potential collisions computed for object FENGYUN 1C DEB.

Target Orbit TCA Probability of collision Miss distance Type
SL-16 R/B LEO 2025-08-08 19:24:37 0.0003280432 215.0 (m) ROCKET BODY
CZ-6A DEB LEO 2025-01-22 21:18:56 0.0002912441 327.0 (m) DEBRIS

Associated space launch

Chinese polar orbiting meteorological satellite

FENGYUN 1C DEB was lifted into orbit during the mission ‘Long March 4B | Feng Yun 1C’, on board a Long March 4B space rocket.

The launch took place on May 10, 1999, 1:33 a.m. from Launch Complex 7.

For more information about the launch, click the button.

Launch to space Long March 4B | Feng Yun 1C
Long March 4B | Feng Yun 1C

Agency: N/A

Status: Launch Successful

Launch date: May 10, 1999, 1:33 a.m. UTC

Rocket: Long March 4B

Launch pad: Launch Complex 7

Location: Taiyuan Satellite Launch Center, People's Republic of China

...

Latest news about this satellite

There are no fresh news available about this satellite. Check back as we update our databases every day.


Newsletter sign-up

Weekly statistics, charts and insights to help you stay on top of the space industry.